Погода в Аладьине

Россия / Рязанская область     54°16′26″N   41°41′06″E
темп.,
°C
ветер,
м/с
пор.,
м/с
влажн.,
%
обл.,
%
осадки,
мм/ч
давл.,
гПа
погр.,
м
20 января, ср
ср2000:00−17з2396100 0.1 101789
03:00−17зюз3497100 0.3 101796
06:00−17зюз359696 0.2 1017121
09:00−16з369697 0.4 1018185
12:00−14з359491 0.1 1019248
15:00−13з369594 0.1 1019234
18:00−14з489596 0.1 1021200
21:00−15з489597 0.1 1022183
21 января, чт
чт2100:00−16з489692 0.0 1023153
03:00−18зюз469675 0.0 102398
06:00−19зюз469532 0.0 102494
09:00−19юз489265 0.0 1024144
12:00−15юз5988100 0.0 1022266
15:00−13ююз61189100 0.0 1019329
18:00−12ююз71494100 0.6 1017525
21:00−10юз61293100 1.9 1015599
22 января, пт
пт2200:00−8зюз41094100 0.3 1015411
03:00−8зюз3796100 0.4 1015190
06:00−6юз2496100 0.1 1014128
09:00−3ююз3797100 0.3 1015226
12:000юз510100100 0.6 1014455
15:00+1зюз51099100 0.8 1014446
18:00+1юз51094100 0.0 1014416
21:00+1юз51193100 0.0 1014487
23 января, сб
сб2300:00+1юз51193100 0.0 1014608
03:00+1юз61294100 0.0 1013541
06:00+1юз71197100 0.0 1013549
09:00+1юз61196100 0.0 1014542
12:00+1юз61298100 0.0 1014615
15:00+1юз71197100 0.0 1014580
18:00+1ююз41097100 0.0 1014351
21:00+1ююз51198100 0.1 1014374
24 января, вс
вс2400:00+1ююз51198100 0.3 1014328
03:00+2юз612100100 1.2 1015351
06:00+1ююз4999100 0.1 1015250
09:00+1ю4899100 0.1 1015209
12:00+1ю511100100 0.0 1016312
15:00+1ю511100100 0.0 1015341
18:00+1ююз61499100 0.2 1016379
21:00+1ю71494100 0.3 1016306